Location: Banska Bystrica
(48.7330°N, 19.1500°E)
Time: 08:17:44
(UTC+02:00)

ISS - Pass Details

Date: 27 March 2019
Orbit: 408 x 410 km, 51.6° (Epoch: 26 April)

Event Time Altitude Azimuth Distance (km) Brightness Sun altitude
Rises 20:08:42 0° 275° (W) 2,336 1.2 -20.0°
Reaches altitude 10° 20:10:49 10° 281° (W) 1,474 0.0 -20.3°
Maximum altitude 20:14:03 49° 357° (N) 540 -3.1 -20.8°
Enters shadow 20:14:15 48° 11° (N) 546 -3.1 -20.8°
